IRNSS-1I (43286 NORAD) Tracking and Keplerian Element Data

This shows tracking and keplerian element data for the satellite.

Feedback or suggestion? Click here.




ElementValue
Catalog43286
NameIRNSS-1I
Epoch Orbit558
Epoch Day283.10542097
Epoch Year2019
RAAN113.6884
Inclination28.6714
Eccentricity0.0020005
Argument of Perigee178.7215
Mean Anonmoly179.099
Mean Motion1.00276677
Decay Rate1.18E-06
L11 43286U 18035A 19283.10542097 .00000118 00000-0 00000+0 0 9990
L22 43286 28.6714 113.6884 0020005 178.7215 179.0990 1.00276677 5581

Live tracking and technical data element details for IRNSS-1I (NORAD 43286). IRNSS-1I can be tracked NOW for your location showing map with azimuth and elevation plus other details from your city location.

Track the satellite on the map from your city or location and see movement details for azimuth, elevation, latitude, longitude, range, height, and movement on the map or in text.







IsCatalogInMostPopularTable: catalog: 43286, numindb: 641
Update: records affected: 1



GetName: 43286 IRNSS-1I

Hit Count: updated at: Mon, 14 Oct 2019 00:35:05 GMT